Find STARLINK-38103

NORAD ID: 799501199 Int'l Des: 2026-160X Constellation: starlink operational

当前视图

正在加载3D地球...

About STARLINK-38103

STARLINK-38103 (NORAD 799501199) is a starlink constellation satellite launched Jul 9, 2026

关于 STARLINK-38103

正在加载描述...

即将过境

Passes for default location (London). Set your location on the main map for personalized predictions.

高度历史

Loading altitude history...

两行轨道根数

1 99999C 2026160X 26195.42548610 .00496780 00000-0 623940-4 0 1955
2 99999 70.0018 28.5069 0010268 259.1902 171.0345 16.06987647 14
Epoch: Jul 14, 2026 • Age: 6 hours